Home > Weather > Sandnessjøen > Past weeks

Flag for Norway Weather for the Past 2 Weeks in Sandnessjøen, Norway

Now
28 °F

Sunny.


Feels Like: 17 °F
Forecast: 30 / 32 °F
Wind: 14 mph from Northeast

Location: Sandnessjoen / Stokka

Current Time: Feb 13, 2016 at 10:42:10 AM

Latest Report: Feb 13, 2016 at 9:50 AM


Visibility: 10 mi

Pressure: 29.53 "Hg

Humidity: 59%

Dew point: 16 °F

Location of SandnessjøenLocation

Historic Weather in Sandnessjøen — Graph

°F

Sandnessjøen Temperature Yesterday

Maximum temperature yesterday: 30 °F (at 4:50 AM)
Minimum temperature yesterday: 27 °F (at 4:20 PM)
Average temperature yesterday: 29 °F

High & Low Weather Summary for the Past Weeks

 TemperatureHumidityPressure
High45 °F (Jan 29, 12:20 PM)100% (Jan 31, 9:50 PM)29.77 "Hg (Jan 31, 9:50 PM)
Low27 °F (Feb 3, 4:50 AM)42% (Jan 29, 12:20 PM)28.15 "Hg (Jan 30, 4:50 AM)
Average35 °F76%29.10 "Hg
* Reported Jan 29 9:20 AM — Feb 13 9:20 AM, Sandnessjøen, Weather by CustomWeather, © 2016

Note: Actual official high and low records may vary slightly from our data, if they occured in-between our weather recording intervals... More about our weather records

Advertising

Sandnessjøen Weather History for the Previous 24 Hours

 ConditionsComfort  
Time TempWeatherWind HumidityBarometerVisibility
9:20 AM
Sat, Feb 13
28 °FSunny.10 mph55%29.53 "Hg10 mi
8:50 AM28 °FSunny.12 mph55%29.53 "Hg10 mi
8:20 AM28 °FClear.10 mph51%29.56 "Hg10 mi
7:50 AM27 °FClear.10 mph54%29.53 "Hg10 mi
7:20 AM28 °FClear.10 mph51%29.56 "Hg10 mi
6:50 AM27 °FClear.8 mph54%29.56 "Hg10 mi
6:20 AM28 °FClear.14 mph51%29.56 "Hg10 mi
5:50 AM28 °FClear.16 mph51%29.56 "Hg10 mi
5:20 AM28 °FClear.14 mph47%29.59 "Hg10 mi
4:50 AM28 °FClear.13 mph51%29.59 "Hg10 mi
9:50 PM
Fri, Feb 12
28 °FClear.12 mph55%29.65 "Hg10 mi
9:20 PM28 °FClear.15 mph55%29.68 "Hg10 mi
8:50 PM28 °FClear.13 mph55%29.68 "Hg10 mi
8:20 PM28 °FClear.13 mph55%29.68 "Hg10 mi
7:20 PM28 °FClear.14 mph47%29.71 "Hg10 mi
6:50 PM28 °FClear.14 mph47%29.71 "Hg10 mi
6:20 PM27 °FClear.15 mph54%29.71 "Hg10 mi
5:20 PM28 °FClear.16 mph47%29.71 "Hg10 mi
4:50 PM27 °FClear.17 mph50%29.74 "Hg10 mi
4:20 PM27 °FSunny.12 mph50%29.74 "Hg10 mi
3:50 PM28 °FSunny.10 mph47%29.74 "Hg10 mi
3:20 PM28 °FSunny.10 mph47%29.74 "Hg10 mi
2:50 PM28 °FSunny.12 mph47%29.74 "Hg10 mi
2:20 PM28 °FSunny.13 mph47%29.74 "Hg10 mi
1:50 PM30 °FSunny.14 mph43%29.74 "Hg10 mi
1:20 PM28 °FSunny.14 mph47%29.74 "Hg10 mi
12:50 PM28 °FSunny.14 mph47%29.74 "Hg10 mi
12:20 PM28 °FSunny.16 mph47%29.74 "Hg10 mi
11:50 AM28 °FSunny.16 mph47%29.74 "Hg10 mi
11:20 AM28 °FSunny.14 mph47%29.74 "Hg10 mi
10:50 AM28 °FSunny.14 mph47%29.77 "Hg10 mi
Weather by CustomWeather, © 2016

See weather overviewHow to use our weather pages